Tracking 31027 objects as of 19-Jul-2025
HD Live streaming from Space Station
objects crossing your sky now

ONEWEB-0223

Track ONEWEB-0223 now!
10-day predictions
ONEWEB-0223 is classified as:


NORAD ID: 48768
Int'l Code: 2021-045B
Perigee: 1,207.1 km
Apogee: 1,210.7 km
Inclination: 87.9 °
Period: 109.5 minutes
Semi major axis: 7579 km
RCS: Unknown
Launch date: May 28, 2021
Source: United Kingdom (UK)
Launch site: VOSTOCHNY COSMODROME (VOSTO)
Your satellite tracking list
KL-BETA B
Track 1 satellite(s)




NASA's NSSDC Master Catalog

Two Line Element Set (TLE):
1 48768U 21045B   25199.60581195 -.00000026  00000-0 -10199-3 0  9999
2 48768  87.9080 325.7020 0002358  93.1946 266.9454 13.15550133201686
Source of the keplerian elements: AFSPC